Погода в Новоселенгинске

Россия / Республика Бурятия     51°05′35″N   106°37′45″E
В апреле 2022 года жителям России запретили посещать сайт meteo.paraplan.net по решению Генеральной прокуратуры. Аудитория сайта уменьшилась в 10 раз. Владельцы сайта не видят смысла в поддержке погодного сервера в таких условиях. Сайт будет закрыт в октябре.
темп.,
°C
ветер,
м/с
пор.,
м/с
влажн.,
%
обл.,
%
осадки,
мм/ч
давл.,
гПа
погр.,
м
25 сентября, вс
вс2523:00+4ссз4107974 0.0 1017689
02:00+2зсз018212 0.0 101810
05:00+1зюз228688 0.0 102019
08:00+4юз117696 0.0 102066
11:00+8юз35505 0.0 10181356
14:00+11юз574279 0.0 10141838
17:00+12юз4743100 0.0 10111380
20:00+7вюв115884 0.0 101010
26 сентября, пн
пн2623:00+5с4776100 0.0 1013268
02:00+5ссв348080 0.0 1015461
05:00+2ююв1191100 0.0 101510
08:00+4в1180100 0.0 1013103
11:00+9ю3559100 0.0 1010701
14:00+14юз46445 0.0 1006959
17:00+16ююз3640100 0.0 1003683
20:00+10юв116042 0.0 100211
27 сентября, вт
вт2723:00+9ююз2264100 0.0 100115
02:00+9сз3365100 0.0 100144
05:00+5ссз101778100 0.0 1009906
08:00+4с71267100 0.0 1013865
11:00+7с684896 0.0 1013964
14:00+8с454079 0.0 10121075
17:00+7ссв5647100 0.0 1013732
20:00+4ссв3574100 0.1 1014280
28 сентября, ср
ср2823:00+4ссв2571100 0.2 1013307
02:00+3ссв2468100 0.2 1012113
05:00+3ссв2364100 0.0 1011132
08:00+2ссв3579100 1.2 1010273
11:00+4ссв3577100 0.0 1008506
14:00+6ссв447084 0.0 1008692
17:00+3с4883100 0.1 1011464
20:00+1с269458 0.3 1014316
29 сентября, чт
чт2923:00+2с2390100 0.0 1015324
02:00+2в1184100 0.0 1015191
05:00+2в0183100 0.0 101662
08:00+2в1183100 0.0 1016132
11:00+6всв2364100 0.0 1014627
14:00+8с2154100 0.0 1012962
17:00+8св1156100 0.0 1012760
20:00+5зсз2270100 0.0 101421